Regional Weather Roundup
Issued by NWS

Home | Current Version | Previous Version | Text Only | Print | Product List | Glossary Off
Versions: 1 2 3 4 5 6 7 8 9 10 11 12 13 14 15 16 17 18 19 20 21 22 23 24 25 26 27 28 29 30 31 32 33 34 35 36 37 38 39 40 41 42 43 44 45 46 47 48 49 50

000
ASUS43 KMKX 270213
RWRWI

WISCONSIN REGIONAL WEATHER ROUNDUP
NATIONAL WEATHER SERVICE MILWAUKEE/SULLIVAN WI
900 PM CDT TUE MAY 26 2015

NOTE: "FAIR" INDICATES FEW OR NO CLOUDS BELOW 12,000 FEET WITH NO
SIGNIFICANT WEATHER AND/OR OBSTRUCTIONS TO VISIBILITY.

WIZ001-002-006>008-014>016-023>028-270300-
NORTHWEST WISCONSIN

CITY           SKY/WX    TMP DP  RH WIND       PRES   REMARKS
SUPERIOR ARPT  CLOUDY    52  50  94 CALM      29.77S
ASHLAND        CLOUDY    52  52 100 N6        29.76S
HAYWARD        LGT RAIN  54  52  93 N5        29.75S
SIREN          CLOUDY    56  55  97 CALM      29.76S
CUMBERLAND     LGT RAIN  54  52  94 N8        29.74S
RICE LAKE      RAIN      56  54  92 N6        29.75S
CHETEK         RAIN      56  56  99 NW5       29.72F
LADYSMITH      LGT RAIN  56  55  95 NW12      29.73S
EAU CLAIRE     LGT RAIN  59  57  93 NW5       29.71S
MENOMONIE      LGT RAIN  58  58  99 W5        29.73S
NEW RICHMOND   LGT RAIN  56  56 100 NW7       29.76S
OSCEOLA        DRIZZLE   57  57 100 N3        29.79R
$$

WIZ003>005-009-010-017-018-270300-
NORTH CENTRAL WISCONSIN

CITY           SKY/WX    TMP DP  RH WIND       PRES   REMARKS
MANITOWISH WTR CLOUDY    56  56 100 N6        29.70F
ARBOR VITAE    LGT RAIN  59  58  94 CALM      29.70S
WOODRUFF       LGT RAIN  59  58  94 CALM      29.70S
RHINELANDER    LGT RAIN  61  59  93 N7        29.68F
EAGLE RIVER    LGT RAIN  60  59  99 N6        29.69S
LAND O LAKES   CLOUDY    58  58  98 N8        29.71F FOG
PHILLIPS       RAIN      57  57  99 N6        29.69F
TOMAHAWK       HVY RAIN  60  59  96 N6        29.66F
MEDFORD        RAIN      62  60  96 N8        29.65F
MERRILL        RAIN      61  61 100 N6        29.65F
$$

WIZ029-030-035-036-043>047-270300-
CENTRAL WISCONSIN

CITY           SKY/WX    TMP DP  RH WIND       PRES   REMARKS
WAUSAU         LGT RAIN  63  62  97 N3        29.61F
MOSINEE        LGT RAIN  63  63 100 N5        29.63F
MARSHFIELD     LGT RAIN  63  60  90 NE9       29.62S
STEVENS POINT  CLOUDY    61  61  99 NE3       29.62S
WAUPACA        CLOUDY    68  67  98 SE3       29.61S
WAUTOMA        NOT AVBL
WISC RAPIDS    LGT RAIN  65  62  90 NE5       29.61F
CAMP DOUGLAS   NOT AVBL
$$

WIZ011>013-019>022-031-037>040-048>050-270300-
NORTHEAST WISCONSIN

CITY           SKY/WX    TMP DP  RH WIND       PRES   REMARKS
ANTIGO         CLOUDY    60  60  99 N3        29.64S
SHAWANO        CLOUDY    66  65  94 CALM      29.61F FOG
OCONTO         CLOUDY    61  61 100 S3        29.63S
STURGEON BAY   MOCLDY    54  50  87 S13       29.67F
GREEN BAY      MOCLDY    68  63  84 S10       29.62F
MANITOWOC      NOT AVBL
APPLETON       MOCLDY    66  64  94 S13G18    29.63S
CLINTONVILLE   LGT RAIN  64  64 100 W5        29.61S
OSHKOSH        CLOUDY    66  60  81 SW18G26   29.64R
$$

WIZ032>034-041-042-053>061-270300-
SOUTHWEST WISCONSIN

CITY           SKY/WX    TMP DP  RH WIND       PRES   REMARKS
LA CROSSE      CLOUDY    63  59  87 W13       29.72R
SPARTA         DRIZZLE   60  58  94 W12G18    29.70R
VIROQUA        CLOUDY    60  60 100 W12G17    29.74R
BOSCOBEL       MOCLDY    65  59  81 SW9       29.76R
PRAIRIE DU CHI CLOUDY    64  58  80 W8        29.76R
PLATTEVILLE    CLOUDY    64  60  85 W7        29.78R
$$

WIZ056-057-062-063-064-067-068-270300-
SOUTH CENTRAL WISCONSIN

CITY           SKY/WX    TMP DP  RH WIND       PRES   REMARKS
REEDSBURG      CLOUDY    63  58  85 W16G23    29.70R
BARABOO/DELLS  CLOUDY    63  56  80 W15G23    29.70R
LONE ROCK      LGT RAIN  64  59  83 W10       29.75R
MINERAL POINT  CLOUDY    64  59  82 W14       29.76S
MADISON        MOCLDY    65  58  78 SW9G17    29.74R
MIDDLETON      CLOUDY    65  59  81 SW8       29.74R
WATERTOWN      PTCLDY   N/A N/A N/A SW14G22   29.73R
MONROE         MOCLDY    64  59  82 SW10      29.78R
JANESVILLE     CLEAR     66  57  72 SW9       29.78R
$$

WIZ051-052-058>065-066-070>072-270300-
SOUTHEAST WISCONSIN

CITY           SKY/WX    TMP DP  RH WIND       PRES   REMARKS
MILWAUKEE      PTCLDY    69  56  62 SW22G31   29.75R
WAUKESHA       CLOUDY    66  57  72 SW12G23   29.76R
MILWAUKEE/TIMM PTCLDY    68  55  64 SW15G21   29.74R
RACINE         MOCLDY    69  57  65 W15G21    29.79R
BURLINGTON     PTCLDY    63  58  83 SW12      29.78R
KENOSHA        PTCLDY    68  59  73 SW15      29.78R
FOND DU LAC    CLOUDY    66  58  75 SW15G28   29.67R
SHEBOYGAN      CLOUDY    67  59  75 SW22G32   29.68S
WEST BEND      PTCLDY    66  55  68 SW18G26   29.71R
JUNEAU         PTCLDY    64  58  82 SW18G24   29.72R
$$

LSZ147-162-270300-
LAKE SUPERIOR

STATION/POSITION TIME  TEMP    WIND        PRES    WAVE
                       AIR SEA DIR/SP/G            HT/PER
                 (UTC) (F)     (DEG/KT/KT) (MB)    (FT/S)
W MID LAKE BUOY  0050   41 37  350/  4/  6 1085.0S   0
DEVILS ISLAND    0100   47      30/  6/ 10 1085.0F
PORT WING        0100   48      30/  6/  7 1085.0
SAXON HARBOR     0100   46        CALM     1078.0
$$

LMZ867-665-643>646-270300-
LAKE MICHIGAN

STATION/POSITION TIME  TEMP    WIND        PRES    WAVE
                       AIR SEA DIR/SP/G            HT/PER
                 (UTC) (F)     (DEG/KT/KT) (MB)    (FT/S)
CHAMBERS ISLAND  0100   61     120/ 10/ 15 1047.0F
N MID LAKE BUOY  0050   43 37   90/ 12/ 14 1061.0F   1/ 5
NORTHPORT PIER   0100   49     160/  4/  8 1058.0F
SISTER BAY       0148   49     120/ 11/ 16   N/A
ALGOMA LAKESHORE 0038          190/  6/  9   N/A
KEWAUNEE LAKESHO 0100   46     170/  8/ 11 1043.0F
SHEBOYGAN LAKESH 0100   51     170/ 20/ 23 1049.0F
PORT WASHINGTON  0121          250/ 10/ 25 1064.0R
ATWATER BUOY     0100   69 47  210/ 19/ 27 1079.0R
MILWAUKEE LAKESH 0100   71     240/ 19/ 24   N/A
S MID LAKE BUOY  0050   46 38  200/ 12/ 12 1087.0R   2/ 4
$$

TC  - TEMPERATURE IN CELSIUS
VSB - VISIBILITY IN STATUTE MILES
WCI - WIND CHILL INDEX
HX  - HEAT INDEX




USA.gov is the U.S. government's official web portal to all federal, state and local government web resources and services.